KWWDTXKF

Guest
Details From KWWD - CAPE MAY CO
To TXKF - Bermuda Intl
Flight Number -
Tags decoded
Created
Modified
Stats Distance 643 nm / 1,191 km
Max Altitude 0 ft / 0 m
Waypoints 5
Social Downloads 1
Likes 0
Share VATSIM

Download

Looking for another format? Having issues loading an existing format? Contact us
Advertisement - Login to hide

Notes

Requested: KWWD LYNUS CHAMP DANER GABES TXKF

Route

KWWD LYNUS DANER GABES TXKF

ID Type Via Altitude Latitude Longitude Leg Dist Tot Dist Heading (true) Name
O KWWD APT - 0 ft / 0 m 39.00851˚ -74.90858˚ - 0 nm - CAPE MAY CO
LYNUS FIX - 0 ft / 0 m 38.01469˚ -72.65402˚ 121 nm 121 nm 119° / 120° -
DANER FIX - 0 ft / 0 m 35.26667˚ -69.06667˚ 238 nm 360 nm 133° / 135° -
GABES FIX - 0 ft / 0 m 34.00000˚ -67.68333˚ 102 nm 462 nm 138° / 138° -
O TXKF APT - 0 ft / 0 m 32.36404˚ -64.67868˚ 180 nm 642 nm 122° / 124° Bermuda Intl

Altitude Profile

Advertisement - Login to hide

Weather


0- 5 10 15 20 25 30 35+ Temperature / ° C

Clouds and Precipitation
Forecast for 2017-12-18 18:00 UTC. Updated 2 hours ago

Ground ~20,000 ft ~40,000 ft Winds

KWWD

Details ICAO KWWD (WWD)
Name CAPE MAY CO
Region United States
Timezone America/New_York (UTC-5.0)
Stats Elevation 23 ft / 7 m (AMSL)
Location 39.008507° -74.908585°
Runways 2
Magnetic Variation 12.046° W

METAR

KWWD 181855Z AUTO 30006KT 10SM CLR 09/01 A3002 RMK AO2 SLP167 T00940011

Decode

TAF

Not found

Departure Runways

ID Width Length Bearing (true) Bearing (mag) Surface Threshold Offset Overrun Length
01 151 ft / 46 m 5,010 ft / 1,527 m 359.61° 11.66° Asphalt 0 ft / 0 m 0 ft / 0 m
10 151 ft / 46 m 4,987 ft / 1,520 m 89.59° 101.64° Asphalt 0 ft / 0 m 0 ft / 0 m
19 151 ft / 46 m 5,010 ft / 1,527 m 179.61° 191.66° Asphalt 79 ft / 24 m 0 ft / 0 m
28 151 ft / 46 m 4,987 ft / 1,520 m 269.60° 281.65° Asphalt 0 ft / 0 m 0 ft / 0 m

TXKF

Details ICAO TXKF (BDA)
Name Bermuda Intl
Region Bermuda
Timezone Unknown (UTC+0.0)
Stats Elevation 12 ft / 4 m (AMSL)
Location 32.364038° -64.678684°
Runways 1
Magnetic Variation 14.784° W

METAR

TXKF 181855Z 25011KT 9999 -SHRA BKN035 BKN300 20/14 Q1021 RGD CIG

Decode

TAF

TAF TXKF 181731Z 1818/1918 25012KT 9999 SCT060 BKN120 BECMG 1901/1903 25022KT BECMG 1910/1912 -SHRA BKN018 TEMPO 1910/1918 4000 SHRA SCT009 BKN014

Decode

Destination Runways

ID Width Length Bearing (true) Bearing (mag) Surface Threshold Offset Overrun Length
12 150 ft / 46 m 9,701 ft / 2,957 m 101.50° 116.28° Asphalt 0 ft / 0 m 553 ft / 169 m
30 150 ft / 46 m 9,701 ft / 2,957 m 281.52° 296.30° Asphalt 0 ft / 0 m 207 ft / 63 m

Approach Navaids

Runway Type Ident Frequency Range Bearing (true) Bearing (mag) Slope Elevation
30 Localiser IBDA 109.90 MHz 18 nm / 33 km 281.50° 296.29° - 11 ft / 3 m (AMSL)
30 Glidescope IBDA 109.90 MHz 10 nm / 19 km 281.51° 296.29° 3.00° 11 ft / 3 m (AMSL)

Popular Alternatives